Flag for Ireland Weather past 2 weeks in Galway, Ireland

Now
45 °F

Passing clouds.


Feels Like: 38 °F
Forecast: N/A
Wind: 15 mph from Northwest

Location: Shannon Airport

Current Time: Jan 30, 2015 at 3:47:48 PM

Latest Report: Jan 30, 2015 at 3:30 PM


Visibility: N/A

Pressure: 29.15 "Hg

Humidity: 66%

Dew point: 34 °F

Location of GalwayLocation

Historic Weather in Galway — Graph

°F

Galway temperature yesterday

Maximum temperature yesterday: 45 °F (at 10:30 PM)
Minimum temperature yesterday: 37 °F (at 12:30 AM)
Average temperature yesterday: 40 °F

Past Weeks' High & Low Weather Summary

 TemperatureHumidityPressure
High54 °F (Jan 25, 12:00 PM)100% (Jan 17, 9:00 PM)30.48 "Hg (Jan 17, 9:00 PM)
Low27 °F (Jan 19, 3:30 AM)57% (Jan 29, 1:00 PM)28.94 "Hg (Jan 15, 2:00 PM)
Average41 °F85%29.91 "Hg
* Reported Jan 15 2:00 PM — Jan 30 2:30 PM, Galway, Weather by CustomWeather, © 2014

Note: Actual official high and low records may vary slightly from our data, if they occured in-between our weather recording intervals... More about our weather records

Advertising

Galway weather history for previous 24 hours

 ConditionsComfort  
Time TempWeatherWind HumidityBarometerVisibility
2:30 PM
Jan 30
45 °FPassing clouds.16 mph66%29.15 "HgN/A
2:00 PM45 °FPassing clouds.17 mph71%29.15 "HgN/A
1:30 PM45 °FPassing clouds.14 mph71%29.15 "HgN/A
1:00 PM45 °FPassing clouds.16 mph71%29.15 "HgN/A
12:30 PM43 °FPassing clouds.16 mph76%29.18 "HgN/A
12:00 PM43 °FPassing clouds.18 mph71%29.18 "HgN/A
11:30 AM43 °FPassing clouds.12 mph76%29.18 "HgN/A
11:00 AM43 °FPassing clouds.17 mph66%29.18 "HgN/A
10:30 AM43 °FPassing clouds.14 mph66%29.18 "HgN/A
10:00 AM43 °FPassing clouds.16 mph61%29.18 "HgN/A
9:30 AM41 °FPassing clouds.13 mph66%29.18 "HgN/A
9:00 AM39 °FPassing clouds.12 mph70%29.18 "HgN/A
8:30 AM41 °FPassing clouds.13 mph66%29.21 "HgN/A
8:00 AM41 °FPassing clouds.12 mph70%29.21 "HgN/A
7:30 AM41 °FPassing clouds.14 mph70%29.21 "HgN/A
7:00 AM43 °FPassing clouds.18 mph66%29.21 "HgN/A
6:30 AM43 °FPassing clouds.15 mph71%29.21 "HgN/A
6:00 AM41 °FPassing clouds.9 mph76%29.21 "HgN/A
5:30 AM43 °FPassing clouds.13 mph71%29.21 "HgN/A
5:00 AM43 °FPassing clouds.18 mph76%29.18 "HgN/A
4:30 AM43 °FPassing clouds.10 mph76%29.21 "HgN/A
4:00 AM43 °FPassing clouds.14 mph76%29.18 "HgN/A
3:30 AM43 °FPassing clouds.18 mph81%29.15 "HgN/A
3:00 AM43 °FPassing clouds.22 mph81%29.15 "HgN/A
2:30 AM43 °FPartly cloudy.21 mph81%29.15 "HgN/A
2:00 AM41 °FSprinkles. Partly cloudy.22 mph87%29.15 "HgN/A
1:30 AM45 °FPassing clouds.29 mph71%29.12 "HgN/A
1:00 AM43 °FPassing clouds.28 mph71%29.12 "HgN/A
12:30 AM43 °FPartly cloudy.32 mph76%29.12 "HgN/A
12:00 AM43 °FSprinkles. Passing clouds.31 mph76%29.12 "HgN/A
11:30 PM
Jan 29
41 °FPassing clouds.32 mph81%29.12 "HgN/A
11:00 PM45 °FSprinkles. Passing clouds.35 mph66%29.09 "HgN/A
10:30 PM45 °FPassing clouds.31 mph61%29.09 "HgN/A
10:00 PM43 °FPassing clouds.30 mph61%29.12 "HgN/A
9:30 PM41 °FSprinkles. Passing clouds.25 mph81%29.12 "HgN/A
9:00 PM43 °FPassing clouds.25 mph71%29.12 "HgN/A
8:30 PM41 °FSprinkles. Passing clouds.25 mph76%29.15 "Hg6 mi
8:00 PM43 °FPassing clouds.31 mph71%29.15 "HgN/A
7:30 PM43 °FPassing clouds.24 mph61%29.15 "HgN/A
7:00 PM43 °FPassing clouds.22 mph66%29.15 "HgN/A
6:30 PM41 °FPassing clouds.20 mph70%29.15 "HgN/A
6:00 PM41 °FPassing clouds.17 mph66%29.15 "HgN/A
5:30 PM39 °FPassing clouds.14 mph75%29.18 "HgN/A
5:00 PM39 °FPassing clouds.15 mph70%29.18 "HgN/A
4:30 PM39 °FScattered clouds.17 mph65%29.15 "HgN/A
4:00 PM39 °FPassing clouds.17 mph61%29.15 "HgN/A
3:30 PM39 °FScattered clouds.22 mph65%29.15 "HgN/A
3:00 PM41 °FScattered clouds.22 mph66%29.15 "HgN/A
Weather by CustomWeather, © 2014

See weather overviewHow to use our weather pages